Time,TemperatureF,DewpointF,PressureIn,WindDirection,WindDirectionDegrees,WindSpeedMPH,WindSpeedGustMPH,Humidity,HourlyPrecipIn,Conditions,Clouds,dailyrainin,SoftwareType,DateUTC
2013-04-29 00:01:00,55.3,45.7,29.04,SSW,203,4.3,8.5,70,2.59,,,6.82,WUHU216HW,2013-04-29 04:01:00,
2013-04-29 00:06:00,55.3,45.8,29.01,SSE,158,6.9,7.6,70,2.59,,,0.00,WUHU216HW,2013-04-29 04:06:00,
2013-04-29 00:11:00,55.3,45.3,29.03,SSE,158,6.5,8.1,69,2.59,,,0.00,WUHU216HW,2013-04-29 04:11:00,
2013-04-29 00:16:00,55.3,45.3,29.08,WSW,248,7.4,8.7,69,2.59,,,0.00,WUHU216HW,2013-04-29 04:16:00,
2013-04-29 00:21:00,55.3,45.3,29.12,SSW,203,2.5,8.7,69,2.59,,,0.00,WUHU216HW,2013-04-29 04:21:00,
2013-04-29 00:26:00,55.3,45.3,28.99,SSW,203,4.9,8.5,69,2.59,,,0.00,WUHU216HW,2013-04-29 04:26:00,
2013-04-29 00:31:00,55.3,45.4,29.06,SW,225,2.9,6.5,69,2.59,,,0.00,WUHU216HW,2013-04-29 04:31:00,
2013-04-29 00:36:00,55.3,45.3,29.06,SW,225,4.3,6.5,69,2.59,,,0.00,WUHU216HW,2013-04-29 04:36:00,
2013-04-29 00:41:00,55.3,45.7,29.01,WSW,248,4.9,5.4,70,2.59,,,0.00,WUHU216HW,2013-04-29 04:41:00,
2013-04-29 00:46:00,55.1,46.3,29.06,SSE,158,4.7,4.9,72,2.59,,,0.00,WUHU216HW,2013-04-29 04:46:00,
2013-04-29 00:51:00,54.7,46.3,29.17,South,180,4.9,6.5,73,2.59,,,0.00,WUHU216HW,2013-04-29 04:51:00,
2013-04-29 00:56:00,54.4,46.3,29.09,SW,225,3.4,6.5,74,2.59,,,0.00,WUHU216HW,2013-04-29 04:56:00,
2013-04-29 01:01:00,54.2,46.2,29.10,SW,225,4.7,9.2,74,2.59,,,0.00,WUHU216HW,2013-04-29 05:01:00,
2013-04-29 01:06:00,54.0,46.3,29.11,SSW,203,4.7,9.2,75,2.59,,,0.35,WUHU216HW,2013-04-29 05:06:00,
2013-04-29 01:11:00,53.8,46.1,29.10,SW,225,8.9,8.9,75,2.60,,,0.35,WUHU216HW,2013-04-29 05:11:00,
2013-04-29 01:16:00,53.6,46.0,29.10,NW,315,4.0,8.9,75,2.60,,,0.35,WUHU216HW,2013-04-29 05:16:00,
2013-04-29 01:21:00,53.6,46.0,29.10,SE,135,3.8,6.7,75,2.60,,,0.35,WUHU216HW,2013-04-29 05:21:00,
2013-04-29 01:26:00,53.5,46.1,28.87,West,270,4.7,5.4,76,2.60,,,0.35,WUHU216HW,2013-04-29 05:26:00,
2013-04-29 01:31:00,53.3,45.9,29.11,SW,225,4.7,6.7,76,2.60,,,0.35,WUHU216HW,2013-04-29 05:31:00,
2013-04-29 01:36:00,53.3,46.3,29.03,SSW,203,6.0,6.9,77,2.60,,,0.35,WUHU216HW,2013-04-29 05:36:00,
2013-04-29 01:41:00,53.3,46.3,29.05,WSW,248,3.6,7.8,77,2.60,,,0.35,WUHU216HW,2013-04-29 05:41:00,
2013-04-29 01:46:00,53.1,46.1,28.91,SSE,158,6.0,7.8,77,2.60,,,0.35,WUHU216HW,2013-04-29 05:46:00,
2013-04-29 01:51:00,53.1,46.1,29.07,NW,315,0.7,6.0,77,2.60,,,0.35,WUHU216HW,2013-04-29 05:51:00,
2013-04-29 01:56:00,52.9,46.3,29.05,SW,225,7.8,7.8,78,2.61,,,0.37,WUHU216HW,2013-04-29 05:56:00,
2013-04-29 02:01:00,52.9,46.3,29.11,SW,225,4.9,7.8,78,0.02,,,0.37,WUHU216HW,2013-04-29 06:01:00,
2013-04-29 02:06:00,52.7,46.4,29.08,WSW,248,5.4,5.8,79,2.60,,,0.73,WUHU216HW,2013-04-29 06:06:00,
2013-04-29 02:11:00,52.6,46.3,29.07,South,180,6.3,8.5,79,2.60,,,0.73,WUHU216HW,2013-04-29 06:11:00,
2013-04-29 02:16:00,52.6,46.3,29.03,SSW,203,6.3,8.5,79,2.60,,,0.73,WUHU216HW,2013-04-29 06:16:00,
2013-04-29 02:21:00,52.4,46.1,28.96,SW,225,4.7,10.3,79,2.60,,,0.73,WUHU216HW,2013-04-29 06:21:00,
2013-04-29 02:26:00,52.4,46.4,29.01,SW,225,4.7,10.3,80,2.60,,,0.73,WUHU216HW,2013-04-29 06:26:00,
2013-04-29 02:31:00,52.2,46.3,29.06,SW,225,13.0,13.0,80,2.60,,,0.73,WUHU216HW,2013-04-29 06:31:00,
2013-04-29 02:36:00,52.2,46.3,28.91,SW,225,7.2,13.0,80,2.60,,,0.73,WUHU216HW,2013-04-29 06:36:00,
2013-04-29 02:41:00,52.2,46.3,28.88,SSW,203,4.5,9.8,80,2.60,,,0.73,WUHU216HW,2013-04-29 06:41:00,
2013-04-29 02:46:00,52.2,46.3,29.11,SW,225,7.8,7.8,80,2.60,,,0.73,WUHU216HW,2013-04-29 06:46:00,
2013-04-29 02:51:00,52.2,45.9,29.04,South,180,4.3,8.5,79,2.60,,,0.73,WUHU216HW,2013-04-29 06:51:00,
2013-04-29 02:56:00,52.4,46.1,29.04,SSW,203,4.7,9.2,79,2.59,,,0.73,WUHU216HW,2013-04-29 06:56:00,
2013-04-29 03:01:00,52.4,45.7,29.07,WSW,248,10.5,10.5,78,2.59,,,0.73,WUHU216HW,2013-04-29 07:01:00,
2013-04-29 03:06:00,52.6,45.9,28.99,WSW,248,10.5,10.5,78,2.59,,,1.10,WUHU216HW,2013-04-29 07:06:00,
2013-04-29 03:11:00,52.6,46.0,29.03,SW,225,3.6,10.5,78,2.59,,,1.10,WUHU216HW,2013-04-29 07:11:00,
2013-04-29 03:16:00,52.6,45.9,29.12,South,180,7.2,9.8,78,2.59,,,1.10,WUHU216HW,2013-04-29 07:16:00,
2013-04-29 03:21:00,52.7,46.1,29.05,SSE,158,4.0,7.2,78,2.59,,,1.10,WUHU216HW,2013-04-29 07:21:00,
2013-04-29 03:26:00,52.7,46.1,29.02,SW,225,4.7,6.9,78,2.59,,,1.10,WUHU216HW,2013-04-29 07:26:00,
2013-04-29 03:31:00,52.7,46.1,29.05,SW,225,5.1,10.1,78,2.60,,,1.10,WUHU216HW,2013-04-29 07:31:00,
2013-04-29 03:36:00,52.7,46.1,29.00,ESE,113,2.0,10.1,78,2.61,,,1.12,WUHU216HW,2013-04-29 07:36:00,
2013-04-29 03:41:00,52.6,46.0,29.04,South,180,6.7,7.6,78,2.62,,,1.13,WUHU216HW,2013-04-29 07:41:00,
2013-04-29 03:46:00,52.4,46.1,29.03,SSW,203,3.4,7.6,79,2.62,,,1.13,WUHU216HW,2013-04-29 07:46:00,
2013-04-29 03:51:00,52.4,46.1,29.04,South,180,4.0,6.3,79,2.63,,,1.14,WUHU216HW,2013-04-29 07:51:00,
2013-04-29 03:56:00,52.4,46.1,29.08,South,180,2.7,7.8,79,2.63,,,1.14,WUHU216HW,2013-04-29 07:56:00,
2013-04-29 04:01:00,52.4,46.1,29.20,SE,135,6.7,7.8,79,2.63,,,1.14,WUHU216HW,2013-04-29 08:01:00,
2013-04-29 04:06:00,52.4,46.1,29.13,SSW,203,1.8,6.7,79,2.63,,,1.54,WUHU216HW,2013-04-29 08:06:00,
2013-04-29 04:11:00,52.4,46.1,28.99,SW,225,4.0,6.5,79,2.63,,,1.54,WUHU216HW,2013-04-29 08:11:00,
2013-04-29 04:16:00,52.6,45.9,29.11,South,180,3.6,6.5,78,2.63,,,1.54,WUHU216HW,2013-04-29 08:16:00,
2013-04-29 04:21:00,52.6,46.0,29.06,SW,225,1.8,4.7,78,2.63,,,1.54,WUHU216HW,2013-04-29 08:21:00,
2013-04-29 04:26:00,52.6,46.0,29.07,SSW,203,5.4,6.0,78,2.63,,,1.54,WUHU216HW,2013-04-29 08:26:00,
2013-04-29 04:31:00,52.7,46.1,28.95,WSW,248,3.1,6.0,78,2.61,,,1.54,WUHU216HW,2013-04-29 08:31:00,
2013-04-29 04:36:00,52.7,46.1,29.03,WSW,248,2.2,5.6,78,2.61,,,1.54,WUHU216HW,2013-04-29 08:36:00,
2013-04-29 04:41:00,52.9,46.3,28.98,SSW,203,3.4,5.8,78,2.60,,,1.54,WUHU216HW,2013-04-29 08:41:00,
2013-04-29 04:46:00,52.9,46.0,29.03,South,180,4.9,5.8,77,2.59,,,1.54,WUHU216HW,2013-04-29 08:46:00,
2013-04-29 04:51:00,52.9,46.0,29.03,WSW,248,5.1,5.4,77,2.59,,,1.54,WUHU216HW,2013-04-29 08:51:00,
2013-04-29 04:56:00,53.1,45.7,29.13,West,270,4.9,5.4,76,2.59,,,1.54,WUHU216HW,2013-04-29 08:56:00,
2013-04-29 05:01:00,53.1,45.7,28.90,WSW,248,2.7,5.1,76,2.59,,,1.54,WUHU216HW,2013-04-29 09:01:00,
2013-04-29 05:06:00,53.3,45.7,28.99,West,270,5.8,5.8,75,2.59,,,1.95,WUHU216HW,2013-04-29 09:06:00,
2013-04-29 05:11:00,53.3,45.5,28.99,SW,225,0.9,9.2,75,2.59,,,1.95,WUHU216HW,2013-04-29 09:11:00,
2013-04-29 05:16:00,53.3,45.5,29.02,SW,225,4.5,9.2,75,2.59,,,1.95,WUHU216HW,2013-04-29 09:16:00,
2013-04-29 05:21:00,53.5,45.7,29.07,SW,225,2.5,5.8,75,2.59,,,1.95,WUHU216HW,2013-04-29 09:21:00,
2013-04-29 05:26:00,53.5,45.9,29.00,West,270,3.6,6.7,75,2.59,,,1.95,WUHU216HW,2013-04-29 09:26:00,
2013-04-29 05:31:00,53.5,45.7,29.09,SSW,203,2.9,6.7,75,2.59,,,1.95,WUHU216HW,2013-04-29 09:31:00,
2013-04-29 05:36:00,53.3,45.5,29.04,WSW,248,3.6,4.7,75,2.59,,,1.95,WUHU216HW,2013-04-29 09:36:00,
2013-04-29 05:41:00,53.3,45.5,28.95,South,180,3.8,4.9,75,2.59,,,1.95,WUHU216HW,2013-04-29 09:41:00,
2013-04-29 05:46:00,53.5,45.7,29.08,South,180,3.8,5.1,75,2.59,,,1.95,WUHU216HW,2013-04-29 09:46:00,
2013-04-29 05:51:00,53.5,45.7,29.02,SSW,203,2.9,5.1,75,2.59,,,1.95,WUHU216HW,2013-04-29 09:51:00,
2013-04-29 05:56:00,53.6,45.9,29.00,SW,225,1.8,8.7,75,2.59,,,1.95,WUHU216HW,2013-04-29 09:56:00,
2013-04-29 06:01:00,53.6,45.9,28.98,SW,225,7.6,8.7,75,2.59,,,1.95,WUHU216HW,2013-04-29 10:01:00,
2013-04-29 06:06:00,53.6,45.9,29.02,WSW,248,2.0,8.1,75,2.59,,,2.35,WUHU216HW,2013-04-29 10:06:00,
2013-04-29 06:11:00,53.6,45.9,28.98,SW,225,5.6,5.8,75,2.59,,,2.35,WUHU216HW,2013-04-29 10:11:00,
2013-04-29 06:16:00,53.6,45.9,29.03,SE,135,3.6,6.0,75,2.60,,,2.37,WUHU216HW,2013-04-29 10:16:00,
2013-04-29 06:21:00,53.5,45.9,29.05,SSW,203,3.6,6.0,75,2.60,,,2.37,WUHU216HW,2013-04-29 10:21:00,
2013-04-29 06:26:00,53.5,46.1,28.98,SSW,203,2.2,3.8,76,2.60,,,2.37,WUHU216HW,2013-04-29 10:26:00,
2013-04-29 06:31:00,53.3,45.9,28.99,WSW,248,4.0,4.0,76,2.60,,,2.37,WUHU216HW,2013-04-29 10:31:00,
2013-04-29 06:36:00,53.3,46.0,29.02,WSW,248,4.0,6.0,76,2.60,,,2.37,WUHU216HW,2013-04-29 10:36:00,
2013-04-29 06:41:00,53.3,45.9,29.04,WSW,248,3.6,6.0,76,2.60,,,2.37,WUHU216HW,2013-04-29 10:41:00,
2013-04-29 06:46:00,53.5,46.1,29.00,SSW,203,1.8,4.7,76,2.60,,,2.37,WUHU216HW,2013-04-29 10:46:00,
2013-04-29 06:51:00,53.5,45.9,29.05,SSW,203,3.4,4.7,75,2.60,,,2.37,WUHU216HW,2013-04-29 10:51:00,
2013-04-29 06:56:00,53.6,45.9,28.99,SSW,203,3.4,4.7,75,2.60,,,2.37,WUHU216HW,2013-04-29 10:56:00,
2013-04-29 07:01:00,53.6,46.0,29.05,SW,225,4.0,5.1,75,2.60,,,2.37,WUHU216HW,2013-04-29 11:01:00,
2013-04-29 07:06:00,53.8,46.1,29.03,SW,225,5.1,5.1,75,2.60,,,2.78,WUHU216HW,2013-04-29 11:06:00,
2013-04-29 07:11:00,53.8,46.1,28.95,SSW,203,2.7,6.3,75,2.60,,,2.78,WUHU216HW,2013-04-29 11:11:00,
2013-04-29 07:16:00,54.0,46.3,28.94,WSW,248,3.8,6.3,75,2.59,,,2.78,WUHU216HW,2013-04-29 11:16:00,
2013-04-29 07:21:00,54.0,46.3,29.00,WSW,248,2.7,5.8,75,2.59,,,2.78,WUHU216HW,2013-04-29 11:21:00,
2013-04-29 07:26:00,54.2,46.5,29.01,SW,225,5.6,5.6,75,2.59,,,2.78,WUHU216HW,2013-04-29 11:26:00,
2013-04-29 07:31:00,54.2,46.5,28.98,SW,225,6.0,6.0,75,2.59,,,2.78,WUHU216HW,2013-04-29 11:31:00,
2013-04-29 07:36:00,54.4,46.7,29.01,South,180,3.6,6.0,75,2.59,,,2.78,WUHU216HW,2013-04-29 11:36:00,
2013-04-29 07:41:00,54.4,46.6,28.99,SSW,203,5.4,5.6,75,2.59,,,2.78,WUHU216HW,2013-04-29 11:41:00,
2013-04-29 07:46:00,54.4,46.3,28.95,WSW,248,3.8,5.4,74,2.59,,,2.78,WUHU216HW,2013-04-29 11:46:00,
2013-04-29 07:51:00,54.5,46.5,29.02,SE,135,1.1,4.0,74,2.59,,,2.78,WUHU216HW,2013-04-29 11:51:00,
2013-04-29 07:56:00,54.7,46.6,28.95,SW,225,4.5,4.5,74,2.59,,,2.78,WUHU216HW,2013-04-29 11:56:00,
2013-04-29 08:01:00,54.9,46.9,28.99,SSW,203,2.7,4.5,74,2.59,,,3.20,WUHU216HW,2013-04-29 12:01:00,
2013-04-29 08:06:00,55.1,47.1,28.97,SW,225,5.6,5.6,74,2.59,,,3.20,WUHU216HW,2013-04-29 12:06:00,
2013-04-29 08:11:00,55.3,46.9,28.97,West,270,2.5,5.6,73,2.59,,,3.20,WUHU216HW,2013-04-29 12:11:00,
2013-04-29 08:16:00,55.4,47.0,28.97,SSE,158,3.4,4.0,73,2.59,,,3.20,WUHU216HW,2013-04-29 12:16:00,
2013-04-29 08:21:00,55.6,47.4,29.01,SW,225,5.4,5.4,74,2.59,,,3.20,WUHU216HW,2013-04-29 12:21:00,
2013-04-29 08:26:00,56.0,48.3,28.99,SW,225,4.0,5.4,75,2.59,,,3.20,WUHU216HW,2013-04-29 12:26:00,
2013-04-29 08:31:00,56.3,48.2,28.99,West,270,7.6,7.6,74,2.59,,,3.20,WUHU216HW,2013-04-29 12:31:00,
2013-04-29 08:36:00,57.1,48.4,28.96,South,180,6.3,7.6,73,2.59,,,3.20,WUHU216HW,2013-04-29 12:36:00,
2013-04-29 08:41:00,57.8,48.9,28.98,SW,225,4.0,6.3,72,2.59,,,3.20,WUHU216HW,2013-04-29 12:41:00,
2013-04-29 08:44:00,58.0,49.0,28.96,SW,225,2.9,2.9,72,2.59,,,3.20,WUHU216HW,2013-04-29 12:44:00,
2013-04-29 08:46:00,58.0,49.0,28.96,SW,225,2.9,5.6,72,2.59,,,3.20,WUHU216HW,2013-04-29 12:46:00,
2013-04-29 08:51:00,58.0,49.0,28.96,SW,225,2.9,4.0,72,2.59,,,3.20,WUHU216HW,2013-04-29 12:51:00,
2013-04-29 09:00:00,58.5,48.8,29.56,South,180,7.6,7.6,70,2.59,,,3.20,WUHU216HW,2013-04-29 13:00:00,
2013-04-29 09:05:00,58.5,49.3,29.56,SW,225,6.3,7.6,71,2.59,,,3.61,WUHU216HW,2013-04-29 13:05:00,
2013-04-29 09:10:00,58.7,49.4,29.56,WSW,248,5.8,8.9,71,2.59,,,3.61,WUHU216HW,2013-04-29 13:10:00,
2013-04-29 09:15:00,58.7,49.3,29.01,SSW,203,8.1,9.2,71,2.59,,,3.61,WUHU216HW,2013-04-29 13:15:00,
2013-04-29 09:20:00,58.7,49.0,29.11,SW,225,6.9,9.2,70,2.59,,,3.61,WUHU216HW,2013-04-29 13:20:00,
2013-04-29 09:25:00,58.7,49.3,29.13,SSW,203,3.4,8.1,71,2.59,,,3.61,WUHU216HW,2013-04-29 13:25:00,
2013-04-29 09:30:00,58.7,49.8,29.16,SW,225,6.5,8.9,72,2.59,,,3.61,WUHU216HW,2013-04-29 13:30:00,
2013-04-29 09:35:00,58.7,49.8,29.15,SW,225,5.6,9.2,72,2.59,,,3.61,WUHU216HW,2013-04-29 13:35:00,
2013-04-29 09:40:00,58.7,49.8,29.17,NW,315,4.0,9.2,72,2.59,,,3.61,WUHU216HW,2013-04-29 13:40:00,
2013-04-29 09:45:00,58.7,49.8,29.17,NW,315,4.0,7.6,72,2.59,,,3.61,WUHU216HW,2013-04-29 13:45:00,
2013-04-29 10:00:00,58.3,49.7,29.57,SW,225,4.0,4.0,73,2.59,,,3.61,WUHU216HW,2013-04-29 14:00:00,
2013-04-29 10:05:00,58.5,50.0,29.57,South,180,4.7,6.9,73,2.59,,,4.03,WUHU216HW,2013-04-29 14:05:00,
2013-04-29 10:10:00,58.5,49.9,29.23,SSW,203,5.4,10.1,73,2.59,,,4.03,WUHU216HW,2013-04-29 14:10:00,
2013-04-29 10:15:00,58.5,49.9,29.08,SW,225,4.3,10.1,73,2.59,,,4.03,WUHU216HW,2013-04-29 14:15:00,
2013-04-29 10:20:00,58.7,49.7,29.14,WSW,248,9.2,9.2,72,2.59,,,4.03,WUHU216HW,2013-04-29 14:20:00,
2013-04-29 10:25:00,58.9,50.4,29.24,South,180,3.8,9.2,73,2.59,,,4.03,WUHU216HW,2013-04-29 14:25:00,
2013-04-29 10:30:00,59.2,50.2,29.19,West,270,3.6,4.5,72,2.59,,,4.03,WUHU216HW,2013-04-29 14:30:00,
2013-04-29 10:35:00,59.2,49.9,29.15,SW,225,5.8,7.2,71,2.59,,,4.03,WUHU216HW,2013-04-29 14:35:00,
2013-04-29 10:40:00,59.4,50.1,29.19,SW,225,3.6,7.2,71,2.59,,,4.03,WUHU216HW,2013-04-29 14:40:00,
2013-04-29 10:45:00,59.2,49.9,29.20,WSW,248,6.9,8.5,71,2.59,,,4.03,WUHU216HW,2013-04-29 14:45:00,
2013-04-29 10:50:00,59.4,50.1,29.18,WSW,248,8.3,8.5,71,2.59,,,4.03,WUHU216HW,2013-04-29 14:50:00,
2013-04-29 10:55:00,60.1,50.8,29.20,SSE,158,3.8,8.3,71,2.59,,,4.03,WUHU216HW,2013-04-29 14:55:00,
2013-04-29 11:00:00,60.5,50.8,29.14,WSW,248,5.6,5.6,70,2.59,,,4.03,WUHU216HW,2013-04-29 15:00:00,
2013-04-29 11:05:00,60.8,50.7,29.14,West,270,6.9,7.6,69,2.59,,,4.45,WUHU216HW,2013-04-29 15:05:00,
2013-04-29 11:10:00,60.7,50.6,29.15,West,270,2.7,7.6,69,2.59,,,4.45,WUHU216HW,2013-04-29 15:10:00,
2013-04-29 11:15:00,60.8,50.7,29.15,SW,225,3.1,8.5,69,2.59,,,4.45,WUHU216HW,2013-04-29 15:15:00,
2013-04-29 11:20:00,61.2,51.0,29.17,West,270,4.9,8.5,69,2.59,,,4.45,WUHU216HW,2013-04-29 15:20:00,
2013-04-29 11:25:00,61.4,51.2,29.15,WNW,293,6.0,8.1,69,2.59,,,4.45,WUHU216HW,2013-04-29 15:25:00,
2013-04-29 11:30:00,61.6,51.5,29.13,West,270,3.8,7.2,69,2.59,,,4.45,WUHU216HW,2013-04-29 15:30:00,
2013-04-29 11:35:00,61.4,51.3,29.10,SW,225,5.6,7.2,69,2.59,,,4.45,WUHU216HW,2013-04-29 15:35:00,
2013-04-29 11:40:00,61.6,51.4,28.98,South,180,4.7,5.8,69,2.59,,,4.45,WUHU216HW,2013-04-29 15:40:00,
2013-04-29 11:45:00,61.6,51.4,29.18,SW,225,2.7,5.8,69,2.59,,,4.45,WUHU216HW,2013-04-29 15:45:00,
2013-04-29 11:50:00,61.6,50.9,29.08,South,180,7.6,7.6,68,2.59,,,4.45,WUHU216HW,2013-04-29 15:50:00,
2013-04-29 11:55:00,61.6,50.9,29.08,West,270,6.9,7.6,68,2.59,,,4.45,WUHU216HW,2013-04-29 15:55:00,
2013-04-29 12:00:00,61.6,50.9,29.11,South,180,6.3,10.1,68,2.59,,,4.45,WUHU216HW,2013-04-29 16:00:00,
2013-04-29 12:05:00,61.9,51.0,29.07,West,270,5.4,10.1,67,2.59,,,4.87,WUHU216HW,2013-04-29 16:05:00,
2013-04-29 12:10:00,61.9,51.3,29.15,NW,315,5.1,7.6,68,2.59,,,4.87,WUHU216HW,2013-04-29 16:10:00,
2013-04-29 12:15:00,62.5,51.3,29.02,West,270,2.9,11.4,67,2.59,,,4.87,WUHU216HW,2013-04-29 16:15:00,
2013-04-29 12:20:00,62.5,51.3,29.08,WSW,248,7.4,11.4,67,2.59,,,4.87,WUHU216HW,2013-04-29 16:20:00,
2013-04-29 12:25:00,62.5,51.3,28.93,SSW,203,1.8,7.4,67,2.59,,,4.87,WUHU216HW,2013-04-29 16:25:00,
2013-04-29 12:30:00,63.2,52.0,29.03,SW,225,8.5,8.5,67,2.59,,,4.87,WUHU216HW,2013-04-29 16:30:00,
2013-04-29 12:32:00,63.7,52.1,29.00,West,270,6.0,6.0,66,2.59,,,4.87,WUHU216HW,2013-04-29 16:32:00,
2013-04-29 12:35:00,63.7,52.1,29.00,West,270,6.0,8.5,66,2.59,,,4.87,WUHU216HW,2013-04-29 16:35:00,
2013-04-29 12:40:00,63.7,52.1,29.00,West,270,6.0,8.1,66,2.59,,,4.87,WUHU216HW,2013-04-29 16:40:00,
2013-04-29 13:00:00,65.9,53.4,29.57,WSW,248,6.7,6.7,64,2.59,,,4.87,WUHU216HW,2013-04-29 17:00:00,
2013-04-29 13:05:00,67.0,53.7,29.56,SW,225,6.3,8.3,62,2.59,,,5.28,WUHU216HW,2013-04-29 17:05:00,
2013-04-29 13:10:00,67.7,53.9,29.56,WSW,248,4.5,8.3,61,2.59,,,5.28,WUHU216HW,2013-04-29 17:10:00,
2013-04-29 13:15:00,68.4,53.2,29.21,SSW,203,7.2,7.6,58,2.59,,,5.28,WUHU216HW,2013-04-29 17:15:00,
2013-04-29 13:20:00,67.7,52.8,29.17,SW,225,3.8,7.6,59,2.59,,,5.28,WUHU216HW,2013-04-29 17:20:00,
2013-04-29 13:25:00,67.3,52.6,29.18,WSW,248,4.0,6.3,59,2.59,,,5.28,WUHU216HW,2013-04-29 17:25:00,
2013-04-29 13:30:00,66.6,52.4,29.11,SSW,203,2.5,8.3,60,2.59,,,5.28,WUHU216HW,2013-04-29 17:30:00,
2013-04-29 13:35:00,65.9,52.1,29.02,SW,225,4.5,8.3,61,2.59,,,5.28,WUHU216HW,2013-04-29 17:35:00,
2013-04-29 13:40:00,65.9,52.1,29.01,SE,135,6.3,6.3,61,2.59,,,5.28,WUHU216HW,2013-04-29 17:40:00,
2013-04-29 13:45:00,65.9,52.5,29.09,WSW,248,5.4,7.6,62,2.59,,,5.28,WUHU216HW,2013-04-29 17:45:00,
2013-04-29 13:50:00,66.1,52.3,29.00,NW,315,3.1,7.6,61,2.59,,,5.28,WUHU216HW,2013-04-29 17:50:00,
2013-04-29 13:55:00,65.7,51.9,29.08,NW,315,6.5,6.5,61,2.59,,,5.28,WUHU216HW,2013-04-29 17:55:00,
2013-04-29 14:00:00,65.2,51.8,29.05,West,270,3.6,6.5,62,2.59,,,5.28,WUHU216HW,2013-04-29 18:00:00,
2013-04-29 14:05:00,65.5,52.6,29.08,South,180,2.7,8.1,63,2.59,,,5.70,WUHU216HW,2013-04-29 18:05:00,
2013-04-29 14:10:00,66.1,52.9,29.07,NNW,338,4.0,8.1,62,2.59,,,5.70,WUHU216HW,2013-04-29 18:10:00,
2013-04-29 14:15:00,65.9,52.7,29.06,SW,225,2.7,6.5,62,2.59,,,5.70,WUHU216HW,2013-04-29 18:15:00,
2013-04-29 14:20:00,66.6,53.2,28.88,WSW,248,6.0,6.5,62,2.59,,,5.70,WUHU216HW,2013-04-29 18:20:00,
2013-04-29 14:25:00,67.3,53.5,29.01,WSW,248,2.2,6.0,61,2.59,,,5.70,WUHU216HW,2013-04-29 18:25:00,
2013-04-29 14:30:00,67.3,53.0,28.95,South,180,3.4,5.4,60,2.59,,,5.70,WUHU216HW,2013-04-29 18:30:00,
2013-04-29 14:35:00,66.8,52.5,28.98,NW,315,6.7,7.6,60,2.59,,,5.70,WUHU216HW,2013-04-29 18:35:00,
2013-04-29 14:40:00,65.9,52.1,29.09,WSW,248,3.4,7.6,61,2.59,,,5.70,WUHU216HW,2013-04-29 18:40:00,
2013-04-29 14:45:00,65.3,51.9,28.94,WSW,248,3.4,4.9,62,2.59,,,5.70,WUHU216HW,2013-04-29 18:45:00,
2013-04-29 14:49:00,65.0,51.6,29.07,WSW,248,1.8,1.8,62,2.59,,,5.70,WUHU216HW,2013-04-29 18:49:00,
2013-04-29 14:50:00,65.0,51.6,29.07,WSW,248,1.8,4.5,62,2.59,,,5.70,WUHU216HW,2013-04-29 18:50:00,
2013-04-29 14:55:00,65.0,51.6,29.07,WSW,248,1.8,3.4,62,2.59,,,5.70,WUHU216HW,2013-04-29 18:55:00,
2013-04-29 15:00:00,64.8,52.1,29.07,SSW,203,4.0,4.0,63,0.00,,,5.70,WUHU216HW,2013-04-29 19:00:00,
2013-04-29 15:05:00,64.8,52.5,29.07,South,180,1.6,6.5,64,2.59,,,6.11,WUHU216HW,2013-04-29 19:05:00,
2013-04-29 15:10:00,65.0,52.7,29.07,WSW,248,4.7,7.6,64,2.59,,,6.11,WUHU216HW,2013-04-29 19:10:00,
2013-04-29 15:15:00,65.2,52.7,29.11,SSW,203,5.8,7.6,64,2.59,,,6.11,WUHU216HW,2013-04-29 19:15:00,
2013-04-29 15:20:00,65.0,52.7,29.09,NW,315,4.3,5.8,64,2.59,,,6.11,WUHU216HW,2013-04-29 19:20:00,
2013-04-29 15:25:00,64.6,52.1,29.06,WSW,248,1.6,6.0,64,2.59,,,6.11,WUHU216HW,2013-04-29 19:25:00,
2013-04-29 15:30:00,64.8,52.3,29.04,SSW,203,4.7,7.6,64,2.59,,,6.11,WUHU216HW,2013-04-29 19:30:00,
2013-04-29 15:35:00,65.2,53.1,29.15,WSW,248,1.8,7.6,65,2.59,,,6.11,WUHU216HW,2013-04-29 19:35:00,
2013-04-29 15:40:00,65.5,53.0,29.10,SW,225,1.3,5.8,64,2.59,,,6.11,WUHU216HW,2013-04-29 19:40:00,
2013-04-29 15:45:00,65.9,53.4,29.11,SSW,203,2.7,4.0,64,2.59,,,6.11,WUHU216HW,2013-04-29 19:45:00,
2013-04-29 15:50:00,66.4,53.8,29.01,South,180,0.4,3.6,64,2.59,,,6.11,WUHU216HW,2013-04-29 19:50:00,
2013-04-29 15:55:00,66.6,53.7,29.05,NNE,23,1.1,3.6,63,2.59,,,6.11,WUHU216HW,2013-04-29 19:55:00,
2013-04-29 16:00:00,67.0,53.9,29.11,SE,135,1.3,2.9,63,2.59,,,6.11,WUHU216HW,2013-04-29 20:00:00,
2013-04-29 16:05:00,67.3,54.3,29.01,South,180,2.5,2.9,63,2.59,,,6.53,WUHU216HW,2013-04-29 20:05:00,
2013-04-29 16:10:00,68.0,55.1,29.09,SSW,203,1.1,2.5,63,2.59,,,6.53,WUHU216HW,2013-04-29 20:10:00,
2013-04-29 16:15:00,68.6,55.0,29.03,ESE,113,2.5,3.4,62,2.59,,,6.53,WUHU216HW,2013-04-29 20:15:00,
2013-04-29 16:20:00,68.8,54.8,28.95,South,180,1.8,3.4,61,2.59,,,6.53,WUHU216HW,2013-04-29 20:20:00,
2013-04-29 16:25:00,68.6,54.2,28.94,SE,135,1.8,3.1,60,2.59,,,6.53,WUHU216HW,2013-04-29 20:25:00,
2013-04-29 16:30:00,67.9,53.5,28.97,South,180,1.8,4.7,60,2.59,,,6.53,WUHU216HW,2013-04-29 20:30:00,
2013-04-29 16:35:00,67.7,53.3,28.94,WNW,293,5.1,5.1,60,2.59,,,6.53,WUHU216HW,2013-04-29 20:35:00,
2013-04-29 16:40:00,66.6,52.7,29.08,SW,225,5.6,6.3,61,2.59,,,6.53,WUHU216HW,2013-04-29 20:40:00,
2013-04-29 16:45:00,66.2,53.0,29.00,NW,315,3.4,6.3,62,2.59,,,6.53,WUHU216HW,2013-04-29 20:45:00,
2013-04-29 16:50:00,66.1,52.9,29.00,South,180,2.9,5.4,62,2.59,,,6.53,WUHU216HW,2013-04-29 20:50:00,
2013-04-29 16:55:00,66.2,53.0,29.02,NW,315,4.5,4.9,62,2.59,,,6.53,WUHU216HW,2013-04-29 20:55:00,
2013-04-29 17:00:00,66.2,53.3,28.91,SW,225,1.8,4.9,63,2.59,,,6.53,WUHU216HW,2013-04-29 21:00:00,
2013-04-29 17:05:00,66.1,53.1,29.07,WSW,248,3.8,3.8,63,2.59,,,6.95,WUHU216HW,2013-04-29 21:05:00,
2013-04-29 17:10:00,65.9,52.9,29.05,SW,225,4.0,4.7,63,2.59,,,6.95,WUHU216HW,2013-04-29 21:10:00,
2013-04-29 17:15:00,66.1,53.1,29.00,SSW,203,5.4,5.4,63,2.59,,,6.95,WUHU216HW,2013-04-29 21:15:00,
2013-04-29 17:20:00,66.4,53.5,29.07,WSW,248,5.1,5.4,63,2.59,,,6.95,WUHU216HW,2013-04-29 21:20:00,
2013-04-29 17:25:00,66.6,53.2,29.05,WSW,248,5.6,5.8,62,2.59,,,6.95,WUHU216HW,2013-04-29 21:25:00,
2013-04-29 17:30:00,66.8,53.4,29.01,South,180,7.2,7.2,62,2.59,,,6.95,WUHU216HW,2013-04-29 21:30:00,
2013-04-29 17:35:00,66.8,53.1,29.01,SSW,203,3.1,7.2,61,2.59,,,6.95,WUHU216HW,2013-04-29 21:35:00,
2013-04-29 17:40:00,66.8,53.1,29.01,SSW,203,3.1,4.7,61,2.59,,,6.95,WUHU216HW,2013-04-29 21:40:00,
2013-04-29 17:45:00,66.6,53.2,29.01,SSW,203,2.5,2.5,62,2.59,,,6.95,WUHU216HW,2013-04-29 21:45:00,
2013-04-29 17:50:00,66.2,53.0,29.02,WSW,248,3.4,7.6,62,2.59,,,6.95,WUHU216HW,2013-04-29 21:50:00,
2013-04-29 17:55:00,65.7,52.3,29.00,SSE,158,2.2,7.6,62,2.59,,,6.95,WUHU216HW,2013-04-29 21:55:00,
2013-04-29 17:58:00,65.7,52.9,29.01,West,270,4.7,4.7,63,2.59,,,6.95,WUHU216HW,2013-04-29 21:58:00,
2013-04-29 18:00:00,65.7,52.9,29.01,West,270,4.7,4.7,63,2.59,,,6.95,WUHU216HW,2013-04-29 22:00:00,
2013-04-29 18:05:00,65.7,52.9,29.01,West,270,4.7,4.7,63,2.59,,,6.95,WUHU216HW,2013-04-29 22:05:00,
2013-04-29 19:00:00,63.9,51.8,29.58,SW,225,2.5,2.5,65,2.59,,,6.95,WUHU216HW,2013-04-29 23:00:00,
2013-04-29 19:05:00,63.9,52.1,29.57,WSW,248,3.4,3.4,65,2.59,,,7.78,WUHU216HW,2013-04-29 23:05:00,
2013-04-29 19:10:00,63.9,51.8,29.18,SSW,203,4.5,4.7,65,2.59,,,7.78,WUHU216HW,2013-04-29 23:10:00,
2013-04-29 19:15:00,63.7,51.7,29.27,WSW,248,3.4,4.7,65,2.59,,,7.78,WUHU216HW,2013-04-29 23:15:00,
2013-04-29 19:20:00,63.5,51.7,29.18,SE,135,4.0,5.8,65,2.59,,,7.78,WUHU216HW,2013-04-29 23:20:00,
2013-04-29 19:25:00,63.4,51.8,29.14,WSW,248,3.4,5.8,66,2.59,,,7.78,WUHU216HW,2013-04-29 23:25:00,
2013-04-29 19:30:00,63.4,51.8,29.04,SW,225,4.7,4.9,66,2.59,,,7.78,WUHU216HW,2013-04-29 23:30:00,
2013-04-29 19:35:00,63.2,51.8,29.11,West,270,3.4,4.9,66,2.59,,,7.78,WUHU216HW,2013-04-29 23:35:00,
2013-04-29 19:40:00,63.0,51.4,29.13,SSW,203,2.2,4.5,66,2.59,,,7.78,WUHU216HW,2013-04-29 23:40:00,
2013-04-29 19:45:00,63.0,51.4,29.15,SW,225,2.5,3.6,66,2.59,,,7.78,WUHU216HW,2013-04-29 23:45:00,
2013-04-29 19:50:00,63.0,51.4,29.17,SW,225,2.9,3.8,66,2.59,,,7.78,WUHU216HW,2013-04-29 23:50:00,
2013-04-29 19:55:00,62.6,51.5,29.09,South,180,1.1,3.8,67,2.59,,,7.78,WUHU216HW,2013-04-29 23:55:00,
2013-04-29 20:00:00,62.6,51.6,29.12,SW,225,3.4,3.4,67,2.59,,,7.78,WUHU216HW,2013-04-30 00:00:00,
2013-04-29 20:05:00,62.5,51.5,29.10,SW,225,2.9,4.7,67,2.59,,,8.20,WUHU216HW,2013-04-30 00:05:00,
2013-04-29 20:10:00,62.3,51.8,29.10,SW,225,5.4,5.4,68,2.59,,,8.20,WUHU216HW,2013-04-30 00:10:00,
2013-04-29 20:15:00,62.1,51.4,29.08,NE,45,1.1,5.4,68,2.59,,,8.20,WUHU216HW,2013-04-30 00:15:00,
2013-04-29 20:20:00,62.1,51.4,29.06,South,180,2.7,5.4,68,2.59,,,8.20,WUHU216HW,2013-04-30 00:20:00,
2013-04-29 20:25:00,61.9,51.3,29.24,SW,225,4.7,4.7,68,2.59,,,8.20,WUHU216HW,2013-04-30 00:25:00,
2013-04-29 20:30:00,61.7,51.2,29.13,WSW,248,1.6,4.7,68,2.59,,,8.20,WUHU216HW,2013-04-30 00:30:00,
2013-04-29 20:35:00,61.6,50.9,29.10,SSW,203,4.9,4.9,68,2.59,,,8.20,WUHU216HW,2013-04-30 00:35:00,
2013-04-29 20:40:00,61.6,51.5,29.14,SSW,203,4.7,4.9,69,2.59,,,8.20,WUHU216HW,2013-04-30 00:40:00,
2013-04-29 20:45:00,61.4,51.2,29.25,SW,225,1.8,4.7,69,2.59,,,8.20,WUHU216HW,2013-04-30 00:45:00,
2013-04-29 20:50:00,61.2,51.1,29.16,West,270,1.8,3.8,69,2.59,,,8.20,WUHU216HW,2013-04-30 00:50:00,
2013-04-29 20:55:00,61.2,51.0,29.07,SW,225,1.8,3.8,69,2.59,,,8.20,WUHU216HW,2013-04-30 00:55:00,
2013-04-29 21:00:00,61.2,51.0,29.13,WSW,248,3.8,3.8,69,2.59,,,8.20,WUHU216HW,2013-04-30 01:00:00,
2013-04-29 21:05:00,61.2,51.0,29.13,WSW,248,3.8,3.8,69,2.59,,,8.20,WUHU216HW,2013-04-30 01:05:00,
2013-04-29 21:10:00,61.0,50.9,29.09,SW,225,1.6,1.6,69,2.59,,,8.61,WUHU216HW,2013-04-30 01:10:00,
2013-04-29 21:15:00,61.2,51.1,29.12,SW,225,1.1,1.6,69,2.59,,,8.61,WUHU216HW,2013-04-30 01:15:00,
2013-04-29 21:20:00,61.0,50.9,29.13,South,180,0.9,1.8,69,2.59,,,8.61,WUHU216HW,2013-04-30 01:20:00,
2013-04-29 21:25:00,61.2,51.0,29.12,South,180,0.7,1.8,69,2.59,,,8.61,WUHU216HW,2013-04-30 01:25:00,
2013-04-29 21:30:00,61.0,50.9,29.13,SSE,158,0.9,1.1,69,2.59,,,8.61,WUHU216HW,2013-04-30 01:30:00,
2013-04-29 21:35:00,61.0,50.9,29.11,South,180,0.9,1.8,69,2.59,,,8.61,WUHU216HW,2013-04-30 01:35:00,
2013-04-29 21:40:00,61.0,50.9,29.11,SE,135,2.0,2.0,69,2.59,,,8.61,WUHU216HW,2013-04-30 01:40:00,
2013-04-29 21:45:00,61.0,50.9,29.11,SE,135,2.0,2.0,69,2.59,,,8.61,WUHU216HW,2013-04-30 01:45:00,
2013-04-29 21:50:00,60.8,50.7,29.13,SSW,203,1.8,2.0,69,2.59,,,8.61,WUHU216HW,2013-04-30 01:50:00,
2013-04-29 21:55:00,60.7,50.6,29.13,SW,225,3.1,3.1,69,2.59,,,8.61,WUHU216HW,2013-04-30 01:55:00,
2013-04-29 22:00:00,60.7,50.5,29.11,WSW,248,1.8,3.1,69,2.59,,,8.61,WUHU216HW,2013-04-30 02:00:00,
2013-04-29 22:02:00,60.5,50.4,29.12,SSW,203,1.1,1.1,69,2.59,,,9.03,WUHU216HW,2013-04-30 02:02:00,
2013-04-29 22:05:00,60.5,50.4,29.12,SSW,203,1.1,1.8,69,2.59,,,9.03,WUHU216HW,2013-04-30 02:05:00,
2013-04-29 22:10:00,60.5,50.4,29.12,SSW,203,1.1,1.3,69,2.59,,,9.03,WUHU216HW,2013-04-30 02:10:00,
2013-04-29 22:25:00,60.1,50.4,29.03,SW,225,3.1,3.1,70,2.59,,,9.03,WUHU216HW,2013-04-30 02:25:00,
2013-04-29 22:30:00,60.1,50.4,29.03,SW,225,3.1,3.1,70,2.59,,,9.03,WUHU216HW,2013-04-30 02:30:00,
2013-04-29 22:35:00,60.1,50.4,29.03,SW,225,3.1,3.1,70,2.59,,,9.03,WUHU216HW,2013-04-30 02:35:00,
2013-04-29 22:40:00,60.1,50.4,29.10,West,270,3.4,3.4,70,2.59,,,9.03,WUHU216HW,2013-04-30 02:40:00,
2013-04-29 22:44:00,59.9,50.2,29.08,SW,225,6.3,6.3,70,2.59,,,9.03,WUHU216HW,2013-04-30 02:44:00,
2013-04-29 22:45:00,59.9,50.2,29.08,SW,225,6.3,6.3,70,2.59,,,9.03,WUHU216HW,2013-04-30 02:45:00,
2013-04-29 22:50:00,59.9,50.2,29.08,SW,225,6.3,6.3,70,2.59,,,9.03,WUHU216HW,2013-04-30 02:50:00,